This is the latest recevied weather packets stored in our database for station/object KE0PRS. If no packets are shown the sender has not sent any weather packets the latest 10 day(s).
| Time | Temp. | Humidity | Pressure | Rain* | Wind** | Luminosity | Snow |
|---|---|---|---|---|---|---|---|
| 1777915577 | 28.33° C | 24% | 1005 hPa | 0 mm | - | 707 W/m² | - |
| 1777915273 | 28.33° C | 22% | 1004.9 hPa | 0 mm | - | 780 W/m² | - |
| 1777914969 | 27.78° C | 23% | 1005 hPa | 0 mm | - | 773 W/m² | - |
| 1777914667 | 27.78° C | 24% | 1005.2 hPa | 0 mm | - | 755 W/m² | - |
| 1777914362 | 28.33° C | 23% | 1004.9 hPa | 0 mm | - | 744 W/m² | - |
| 1777914060 | 27.78° C | 26% | 1004.9 hPa | 0 mm | - | 735 W/m² | - |
| 1777913756 | 27.78° C | 26% | 1005.1 hPa | 0 mm | - | 725 W/m² | - |
| 1777913453 | 27.78° C | 26% | 1005.1 hPa | 0 mm | - | 717 W/m² | - |
| 1777913149 | 27.22° C | 28% | 1005 hPa | 0 mm | - | 707 W/m² | - |
| 1777912846 | 27.22° C | 29% | 1005.3 hPa | 0 mm | - | 695 W/m² | - |
| 1777912543 | 26.67° C | 29% | 1005 hPa | 0 mm | - | 685 W/m² | - |
| 1777912239 | 26.67° C | 28% | 1004.9 hPa | 0 mm | - | 676 W/m² | - |
| 1777911935 | 26.11° C | 29% | 1005.2 hPa | 0 mm | - | 663 W/m² | - |
| 1777911631 | 26.11° C | 28% | 1005 hPa | 0 mm | - | 593 W/m² | - |
| 1777911327 | 26.67° C | 28% | 1004.9 hPa | 0 mm | - | 593 W/m² | - |
| 1777911026 | 26.11° C | 28% | 1005 hPa | 0 mm | - | 570 W/m² | - |
| 1777910723 | 25.56° C | 29% | 1004.9 hPa | 0 mm | - | 611 W/m² | - |
| 1777910419 | 25.56° C | 30% | 1004.8 hPa | 0 mm | - | 600 W/m² | - |
| 1777910116 | 25.56° C | 29% | 1005 hPa | 0 mm | - | 593 W/m² | - |
| 1777909814 | 25.56° C | 30% | 1004.6 hPa | 0 mm | - | 580 W/m² | - |
| 1777909510 | 25.56° C | 31% | 1004.8 hPa | 0 mm | - | 565 W/m² | - |
| 1777909208 | 25° C | 30% | 1004.5 hPa | 0 mm | - | 542 W/m² | - |
| 1777908905 | 24.44° C | 31% | 1004.5 hPa | 0 mm | - | 527 W/m² | - |
| 1777908603 | 24.44° C | 32% | 1004.5 hPa | 0 mm | - | 505 W/m² | - |
| 1777908299 | 23.89° C | 33% | 1004.5 hPa | 0 mm | - | 489 W/m² | - |
* Rain latest hour (hover to see other rain measurements)
** Current wind speed in m/s (hover to see current wind gust speed)